Flippin, AR

6:14 AM CST on February 09, 2016 (GMT -0600)
Marion County Regional

Weather History for KFLP - December, 1999

Change the Weather History Date:

Thursday, December 30, 1999

  Actual Average Record
Temperature  
Mean Temperature 54 °F -  
Max Temperature 73 °F 44 °F 73 °F (1999)
Min Temperature 35 °F 26 °F 15 °F (2000)
Degree Days  
Heating Degree Days 11    
Growing Degree Days 4 (Base 50)    
Moisture  
Dew Point 34 °F    
Average Humidity 53    
Maximum Humidity 81    
Minimum Humidity 23    
Precipitation  
Precipitation 0.00 in - - ()
Sea Level Pressure  
Sea Level Pressure 29.82 in    
Wind  
Wind Speed 2 mph (ESE)    
Max Wind Speed 7 mph    
Max Gust Speed -    
Visibility 10 miles    
Events      
Averages and records for this station are not official NWS values.
T = Trace of Precipitation, MM = Missing Value Source: NWS Daily Summary

Daily Weather History Graph

Daily Weather History Graph

Search for Another Location

Airport or City:

Trip Planner

Search our weather history database for the weather conditions in past years. The results will help you decide how hot, cold, wet, or windy it might be!

Date:

Astronomy

Dec. 30, 1999 Rise Set
Actual Time 7:21 AM CST 5:04 PM CST
Civil Twilight 6:52 AM CST 5:33 PM CST
Nautical Twilight 6:20 AM CST 6:05 PM CST
Astronomical Twilight 5:49 AM CST 6:36 PM CST
Moon 12:50 AM CST (12/30) 12:53 PM CST (12/30)
Length of Visible Light 10h 40m
Length of Day
9h 43m
Last Quarter, 39% of the Moon is Illuminated
Dec 30
Last Quarter
Jan 6
New
Jan 14
First Quarter
Jan 20
Full
Jan 28
Last Quarter

Hourly Weather History & Observations

Time (CST) Temp. Windchill Dew Point Humidity Pressure Visibility Wind Dir Wind Speed Gust Speed Precip Events Conditions
12:15 AM 44.6 °F 43.1 °F 32.0 °F 61% 29.88 in 10.0 mi ESE 3.5 mph - N/A   Clear
12:35 AM 46.4 °F - 33.8 °F 62% 29.88 in 10.0 mi Calm Calm - N/A   Clear
12:55 AM 42.8 °F - 30.2 °F 61% 29.89 in 10.0 mi Calm Calm - N/A   Clear
1:15 AM 42.8 °F - 32.0 °F 66% 29.88 in 10.0 mi Calm Calm - N/A   Clear
1:35 AM 42.8 °F - 32.0 °F 66% 29.87 in 10.0 mi Calm Calm - N/A   Clear
1:55 AM 44.6 °F - 32.0 °F 61% 29.87 in 10.0 mi Calm Calm - N/A   Clear
2:15 AM 37.4 °F - 30.2 °F 75% 29.88 in 10.0 mi Calm Calm - N/A   Clear
2:35 AM 41.0 °F - 32.0 °F 70% 29.87 in 10.0 mi Calm Calm - N/A   Clear
2:55 AM 39.2 °F 37.0 °F 32.0 °F 75% 29.87 in 10.0 mi ENE 3.5 mph - N/A   Clear
3:15 AM 41.0 °F 39.0 °F 32.0 °F 70% 29.86 in 10.0 mi ESE 3.5 mph - N/A   Clear
3:35 AM 35.6 °F - 30.2 °F 81% 29.85 in 10.0 mi Calm Calm - N/A   Clear
3:55 AM 39.2 °F - 32.0 °F 75% 29.84 in 10.0 mi Calm Calm - N/A   Clear
4:15 AM 37.4 °F - 32.0 °F 81% 29.83 in 10.0 mi Calm Calm - N/A   Clear
4:35 AM 39.2 °F - 32.0 °F 75% 29.83 in 10.0 mi Calm Calm - N/A   Clear
4:55 AM 41.0 °F - 32.0 °F 70% 29.83 in 10.0 mi Calm Calm - N/A   Clear
5:15 AM 41.0 °F 39.0 °F 32.0 °F 70% 29.83 in 10.0 mi North 3.5 mph - N/A   Clear
5:35 AM 41.0 °F 38.0 °F 33.8 °F 76% 29.84 in 10.0 mi NNE 4.6 mph - N/A   Clear
5:55 AM 41.0 °F - 32.0 °F 70% 29.84 in 10.0 mi Calm Calm - N/A   Clear
6:15 AM 37.4 °F 34.9 °F 30.2 °F 75% 29.84 in 10.0 mi NNW 3.5 mph - N/A   Clear
6:35 AM 39.2 °F 37.0 °F 33.8 °F 81% 29.83 in 10.0 mi ENE 3.5 mph - N/A   Clear
6:55 AM 37.4 °F - 32.0 °F 81% 29.84 in 10.0 mi Calm Calm - N/A   Clear
7:15 AM 37.4 °F - 32.0 °F 81% 29.84 in 10.0 mi Calm Calm - N/A   Clear
7:35 AM 39.2 °F - 32.0 °F 75% 29.83 in 10.0 mi Calm Calm - N/A   Clear
7:55 AM 39.2 °F - 33.8 °F 81% 29.83 in 10.0 mi Calm Calm - N/A   Clear
8:15 AM 41.0 °F - 33.8 °F 76% 29.83 in 10.0 mi Calm Calm - N/A   Clear
8:35 AM 44.6 °F - 35.6 °F 71% 29.84 in 10.0 mi Calm Calm - N/A   Clear
8:55 AM 46.4 °F - 35.6 °F 66% 29.84 in 10.0 mi Calm Calm - N/A   Clear
9:15 AM 48.2 °F - 37.4 °F 66% 29.84 in 10.0 mi Calm Calm - N/A   Clear
9:35 AM 51.8 °F - 37.4 °F 58% 29.84 in 10.0 mi Calm Calm - N/A   Clear
9:55 AM 55.4 °F - 37.4 °F 51% 29.84 in 10.0 mi East 4.6 mph - N/A   Clear
10:15 AM 57.2 °F - 37.4 °F 48% 29.84 in 10.0 mi Calm Calm - N/A   Clear
10:35 AM 59.0 °F - 37.4 °F 45% 29.85 in 10.0 mi Calm Calm - N/A   Clear
10:55 AM 60.8 °F - 37.4 °F 42% 29.84 in 10.0 mi Calm Calm - N/A   Clear
11:15 AM 62.6 °F - 37.4 °F 39% 29.83 in 10.0 mi Calm Calm - N/A   Clear
11:35 AM 64.4 °F - 37.4 °F 37% 29.82 in 10.0 mi East 3.5 mph - N/A   Clear
11:55 AM 66.2 °F - 37.4 °F 35% 29.80 in 10.0 mi East 3.5 mph - N/A   Clear
12:15 PM 69.8 °F - 37.4 °F 31% 29.79 in 10.0 mi SSE 3.5 mph - N/A   Clear
12:35 PM 69.8 °F - 37.4 °F 31% 29.78 in 10.0 mi South 4.6 mph - N/A   Clear
12:55 PM 71.6 °F - 35.6 °F 27% 29.77 in 10.0 mi SSW 5.8 mph - N/A   Clear
1:15 PM 71.6 °F - 35.6 °F 27% 29.76 in 10.0 mi SSE 3.5 mph - N/A   Clear
1:35 PM 73.4 °F - 35.6 °F 25% 29.75 in 10.0 mi East 5.8 mph - N/A   Scattered Clouds
1:55 PM 71.6 °F - 33.8 °F 25% 29.75 in 10.0 mi ESE 3.5 mph - N/A   Scattered Clouds
2:15 PM 73.4 °F - 33.8 °F 23% 29.75 in 10.0 mi SE 6.9 mph - N/A   Scattered Clouds
2:35 PM 73.4 °F - 35.6 °F 25% 29.75 in 10.0 mi East 6.9 mph - N/A   Partly Cloudy
2:55 PM 73.4 °F - 35.6 °F 25% 29.75 in 10.0 mi ENE 5.8 mph - N/A   Clear
3:15 PM 71.6 °F - 37.4 °F 29% 29.76 in 10.0 mi ENE 5.8 mph - N/A   Clear
3:35 PM 71.6 °F - 37.4 °F 29% 29.77 in 10.0 mi East 5.8 mph - N/A   Clear
3:55 PM 71.6 °F - 35.6 °F 27% 29.78 in 10.0 mi Calm Calm - N/A   Clear
4:15 PM 69.8 °F - 35.6 °F 28% 29.79 in 10.0 mi South 6.9 mph - N/A   Clear
4:35 PM 66.2 °F - 35.6 °F 32% 29.81 in 10.0 mi Calm Calm - N/A   Clear
4:55 PM 64.4 °F - 35.6 °F 34% 29.81 in 10.0 mi ESE 3.5 mph - N/A   Clear
5:15 PM 62.6 °F - 35.6 °F 37% 29.82 in 10.0 mi South 4.6 mph - N/A   Clear
5:35 PM 62.6 °F - 33.8 °F 34% 29.83 in 10.0 mi Calm Calm - N/A   Clear
5:55 PM 60.8 °F - 33.8 °F 36% 29.84 in 10.0 mi Calm Calm - N/A   Clear
6:15 PM 60.8 °F - 33.8 °F 36% 29.85 in 10.0 mi Calm Calm - N/A   Clear
6:35 PM 57.2 °F - 33.8 °F 41% 29.85 in 10.0 mi Calm Calm - N/A   Clear
6:55 PM 55.4 °F - 35.6 °F 47% 29.86 in 10.0 mi Calm Calm - N/A   Clear
7:15 PM 59.0 °F - 35.6 °F 42% 29.86 in 10.0 mi Calm Calm - N/A   Clear
7:35 PM 55.4 °F - 35.6 °F 47% 29.87 in 10.0 mi Calm Calm - N/A   Clear
7:55 PM 53.6 °F - 35.6 °F 51% 29.88 in 10.0 mi North 3.5 mph - N/A   Clear
8:15 PM 48.2 °F - 33.8 °F 58% 29.89 in 10.0 mi Calm Calm - N/A   Clear
8:35 PM 46.4 °F 41.5 °F 33.8 °F 62% 29.91 in 10.0 mi NW 10.4 mph - N/A   Clear
8:55 PM 51.8 °F - 35.6 °F 54% 29.92 in 10.0 mi North 6.9 mph - N/A   Clear
9:15 PM 51.8 °F - 35.6 °F 54% 29.94 in 10.0 mi NNW 6.9 mph - N/A   Clear
9:35 PM 53.6 °F - 35.6 °F 51% 29.95 in 10.0 mi North 8.1 mph - N/A   Clear
9:55 PM 53.6 °F - 35.6 °F 51% 29.96 in 10.0 mi North 8.1 mph - N/A   Clear
10:15 PM 51.8 °F - 35.6 °F 54% 29.97 in 10.0 mi North 5.8 mph - N/A   Clear
10:35 PM 50.0 °F - 33.8 °F 54% 29.98 in 10.0 mi North 5.8 mph - N/A   Clear
10:55 PM 51.8 °F - 33.8 °F 50% 29.99 in 10.0 mi North 6.9 mph - N/A   Clear
11:15 PM 50.0 °F - 33.8 °F 54% 29.99 in 10.0 mi North 6.9 mph - N/A   Clear
11:35 PM 48.2 °F - 33.8 °F 58% 30.00 in 10.0 mi North 6.9 mph - N/A   Clear
11:55 PM 48.2 °F - 33.8 °F 58% 30.01 in 10.0 mi North 6.9 mph - N/A   Clear